This demonstration page uses our WeatherBlox Daily Observations layout. Learn more.

Left ArrowRight Arrow

36.19886, -115.1175

Hourly Observations for December 12, 2018

Temp ( °F °C ) Dew Point ( °F °C ) Humidity (%) Winds ( mph kmh ) Pressure ( in mb ) Visibility ( mi km ) Precip ( " mm )
12:53 am 00:53 Clear 45 7.2 30 -1.1 56 56 WNW 3 6 30.1 1019 10 16.0934 N/A
1:53 am 01:53 Clear 46 7.8 25 -3.9 44 44 WNW 7 11 30.09 1019 10 16.0934 N/A
2:53 am 02:53 Clear 44 6.7 29 -1.7 55 55 W 3 6 30.07 1018 10 16.0934 N/A
3:53 am 03:53 Clear 43 6.1 29 -1.7 58 58 NW 5 7 30.07 1018 10 16.0934 N/A
4:53 am 04:53 Clear 41 5 30 -1.1 65 65 NNW 7 11 30.07 1018 10 16.0934 N/A
5:53 am 05:53 Clear 42 5.6 28 -2.2 58 58 NNW 5 7 30.06 1018 10 16.0934 N/A
6:53 am 06:53 Sunny 44 6.7 25 -3.9 47 47 N 8 13 30.08 1019 10 16.0934 N/A
7:53 am 07:53 Sunny 47 8.3 25 -3.9 42 42 NNE 8 13 30.1 1019 10 16.0934 N/A
8:53 am 08:53 Sunny 52 11.1 25 -3.9 35 35 NNE 6 9 30.14 1021 10 16.0934 N/A
9:53 am 09:53 Sunny 55 12.8 27 -2.8 34 34 SSW 6 9 30.16 1021 10 16.0934 N/A
10:53 am 10:53 Sunny 59 15 27 -2.8 29 29 VRB 7 11 30.13 1020 10 16.0934 N/A
11:37 am 11:37 Sunny 66 18.9 23 -5 19 19 NNW 18 30 30 1016 10 16.0934 N/A
11:53 am 11:53 Sunny 67 19.4 23 -5 19 19 N 23 37 30.09 1019 10 16.0934 N/A
12:53 pm 12:53 Sunny 68 20 21 -6.1 17 17 N 16 26 30.1 1019 10 16.0934 N/A
1:53 pm 13:53 Sunny 65 18.3 26 -3.3 23 23 ESE 14 22 30.11 1020 10 16.0934 N/A
2:53 pm 14:53 Sunny 66 18.9 22 -5.6 19 19 E 14 22 30.15 1021 10 16.0934 N/A
3:53 pm 15:53 Sunny 64 17.8 24 -4.4 22 22 undefined N/A 30.16 1022 10 16.0934 N/A
4:53 pm 16:53 Clear 60 15.6 24 -4.4 25 25 SW 3 6 30.22 1024 10 16.0934 N/A
5:53 pm 17:53 Clear 60 15.6 18 -7.8 19 19 N 5 7 30.24 1024 10 16.0934 N/A
6:53 pm 18:53 Clear 55 12.8 14 -10 20 20 N 7 11 30.26 1025 10 16.0934 N/A
7:53 pm 19:53 Clear 54 12.2 10 -12.2 17 17 N 12 19 30.27 1025 10 16.0934 N/A
8:53 pm 20:53 Clear 54 12.2 9 -12.8 16 16 N 9 15 30.29 1026 10 16.0934 N/A
9:53 pm 21:53 Clear 50 10 11 -11.7 21 21 NE 7 11 30.31 1027 10 16.0934 N/A
10:53 pm 22:53 Clear 48 8.9 12 -11.1 23 23 N 3 6 30.33 1027 10 16.0934 N/A
11:53 pm 23:53 Clear 48 8.9 14 -10 25 25 NW 6 9 30.32 1027 10 16.0934 N/A

Powered by AerisWeather